Flag for United Kingdom Weather past 2 weeks in Londonderry, Northern Ireland, United Kingdom

Now
52 °F

Rain. Overcast.


Feels Like: 46 °F
Forecast: 45 / 52 °F
Wind: 24 mph from West

Location: Castlederg

Current Time: Dec 22, 2014 at 4:56:16 AM

Latest Report: Dec 22, 2014 at 4:00 AM


Visibility: 3 mi

Pressure: 29.68 "Hg

Humidity: 99%

Dew point: 52 °F

Location of LondonderryLocation

Historic Weather in Londonderry — Graph

°F

Londonderry temperature yesterday

Maximum temperature yesterday: 54 °F (at 5:00 PM)
Minimum temperature yesterday: 44 °F (at 12:00 AM)
Average temperature yesterday: 50 °F

Past Weeks' High & Low Weather Summary

 TemperatureHumidityPressure
High54 °F (Dec 21, 5:00 PM)100% (Dec 8, 3:00 AM)30.29 "Hg (Dec 8, 3:00 AM)
Low30 °F (Dec 12, 5:00 AM)66% (Dec 11, 5:00 AM)29.23 "Hg (Dec 12, 3:00 AM)
Average42 °F89%29.77 "Hg
* Reported Dec 7 3:00 AM — Dec 22 3:00 AM, Londonderry, Weather by CustomWeather, © 2014

Note: Actual official high and low records may vary slightly from our data, if they occured in-between our weather recording intervals... More about our weather records

Advertising

Londonderry weather history for previous 24 hours

 ConditionsComfort  
Time TempWeatherWind HumidityBarometerVisibility
3:00 AM
Dec 22
52 °FRain. Overcast.24 mph99%29.70 "Hg2 mi
2:00 AM52 °FRain. Overcast.24 mph99%29.70 "Hg2 mi
1:00 AM52 °FRain. Overcast.25 mph98%29.72 "Hg3 mi
12:00 AM52 °FRain. Overcast.21 mph100%29.74 "Hg2 mi
11:00 PM
Dec 21
53 °FRain. Overcast.23 mph99%29.75 "Hg3 mi
10:00 PM53 °FRain. Overcast.24 mph98%29.76 "Hg4 mi
9:00 PM53 °FRain. Overcast.26 mph97%29.77 "Hg2 mi
8:00 PM53 °FRain. Overcast.28 mph98%29.79 "Hg3 mi
7:00 PM53 °FDrizzle. Overcast.26 mph99%29.79 "Hg3 mi
6:00 PM53 °FDrizzle. Overcast.29 mph99%29.79 "Hg2 mi
5:00 PM54 °FCool.24 mph93%29.80 "Hg19 mi
4:00 PM53 °FCool.22 mph98%29.82 "Hg4 mi
3:00 PM53 °FDrizzle. Cloudy.18 mph100%29.85 "Hg2 mi
2:00 PM52 °FRain. Cloudy.13 mph100%29.88 "Hg2 mi
1:00 PM52 °FDrizzle. Cloudy.15 mph99%29.90 "Hg2 mi
12:00 PM52 °FCool.23 mph92%29.93 "Hg31 mi
11:00 AM52 °FCool.18 mph93%29.95 "Hg31 mi
10:00 AM51 °FDrizzle. Cloudy.20 mph97%29.96 "Hg28 mi
9:00 AM50 °FDrizzle. Cloudy.21 mph99%29.98 "Hg2 mi
8:00 AM50 °FRain. Overcast.18 mph99%29.99 "Hg2 mi
7:00 AM49 °FDrizzle. Overcast.21 mph99%30.00 "Hg2 mi
6:00 AM49 °FLight freezing rain. Overcast.22 mph96%30.03 "Hg3 mi
5:00 AM48 °FCool.21 mph94%30.04 "Hg17 mi
4:00 AM47 °FSmoke.16 mph92%30.08 "Hg4 mi
Weather by CustomWeather, © 2014

See weather overviewHow to use our weather pages